Weather History for CXAT - April, 2014

Change the Weather History Date:

Monday, April 28, 2014

  Actual Average Record
Temperature  
Mean Temperature -1 °F -  
Max Temperature 12 °F - - ()
Min Temperature -12 °F - - ()
Degree Days  
Heating Degree Days 66    
Moisture  
Dew Point -4 °F    
Average Humidity 73    
Maximum Humidity 83    
Minimum Humidity 63    
Precipitation  
Precipitation 0.29 in - - ()
Sea Level Pressure  
Sea Level Pressure 30.51 in    
Wind  
Wind Speed 10 mph ()    
Max Wind Speed 28 mph    
Max Gust Speed 34 mph    
T = Trace of Precipitation, MM = Missing Value Source: Averaged Metar Reports

Daily Weather History Graph

Daily Weather History Graph

Search for Another Location

Airport or City:

Trip Planner

Search our weather history database for the weather conditions in past years. The results will help you decide how hot, cold, wet, or windy it might be!

Date:

Astronomy

Apr. 28, 2014 Rise Set
Actual Time 2:32 AM CDT 10:50 PM CDT
Civil Twilight Sun does not set Sun does not set
Nautical Twilight Sun does not set Sun does not set
Astronomical Twilight Sun does not set Sun does not set
Moon 3:27 AM CDT (4/28) 9:47 PM CDT (4/28)
Length of Visible Light 24h 00m
Length of Day
20h 17m
Waning Crescent, 0% of the Moon is Illuminated
Apr 28
Waning Crescent
Apr 29
New
May 6
First Quarter
May 14
Full
May 21
Last Quarter

Hourly Weather History & Observations

Time (CDT) Temp. Windchill Dew Point Humidity Pressure Visibility Wind Dir Wind Speed Gust Speed Precip Events Conditions
12:00 AM -8.0 °F - -12.5 °F 81% 30.56 in - NW 1.2 mph - N/A   Unknown
1:00 AM -12.8 °F - -17.9 °F 78% 30.57 in - Calm Calm - N/A   Unknown
2:00 AM -12.6 °F -22.3 °F -17.7 °F 78% 30.58 in - NNW 3.5 mph - N/A   Unknown
3:00 AM -10.3 °F -21.9 °F -18.4 °F 67% 30.59 in - NNW 4.6 mph - N/A   Unknown
4:00 AM -7.6 °F -26.6 °F -14.8 °F 71% 30.60 in - WNW 11.5 mph - N/A   Unknown
5:00 AM -6.5 °F -19.3 °F -12.5 °F 75% 30.61 in - NW 5.8 mph - N/A   Unknown
6:00 AM -4.4 °F -15.0 °F -12.5 °F 68% 30.60 in - WNW 4.6 mph - N/A   Unknown
7:00 AM -0.6 °F -10.6 °F -10.1 °F 64% 30.61 in - WNW 4.6 mph - N/A   Unknown
8:00 AM 4.1 °F -16.4 °F -5.4 °F 65% 30.59 in - SSE 19.6 mph - N/A   Unknown
9:00 AM 5.0 °F -15.7 °F -3.8 °F 67% 30.58 in - SE 20.7 mph 26.5 mph N/A   Unknown
10:00 AM 6.4 °F -13.8 °F -2.4 °F 67% 30.58 in - SE 20.7 mph 26.5 mph N/A   Unknown
12:00 PM 8.4 °F -8.6 °F -0.4 °F 67% 30.56 in - SE 15.0 mph 21.9 mph N/A   Unknown
1:00 PM 10.4 °F -6.6 °F 0.1 °F 63% 30.53 in - ESE 16.1 mph 23.0 mph N/A   Unknown
2:00 PM 9.9 °F -9.3 °F 1.6 °F 69% 30.52 in - ESE 20.7 mph 27.6 mph N/A   Unknown
3:00 PM 9.0 °F -11.4 °F 3.0 °F 77% 30.50 in - SE 23.0 mph 32.2 mph N/A   Unknown
4:00 PM 9.9 °F -8.9 °F 2.8 °F 73% 30.48 in - ESE 19.6 mph 27.6 mph N/A   Unknown
5:00 PM 9.9 °F -8.4 °F 2.8 °F 73% 30.46 in - SE 18.4 mph 26.5 mph N/A   Unknown
6:00 PM 10.8 °F -7.7 °F 3.4 °F 72% 30.42 in - SE 19.6 mph 28.8 mph N/A   Unknown
7:00 PM 10.6 °F -10.8 °F 5.0 °F 78% 30.39 in - SE 27.6 mph 34.5 mph N/A   Unknown
8:00 PM 10.2 °F -11.3 °F 5.4 °F 81% 30.38 in - SE 27.6 mph 33.4 mph N/A   Unknown
9:00 PM 10.4 °F -8.2 °F 6.3 °F 83% 30.37 in - SE 19.6 mph 25.3 mph N/A   Unknown
10:00 PM 10.9 °F -9.6 °F 5.5 °F 79% 30.33 in - SE 25.3 mph 34.5 mph N/A   Unknown
11:00 PM 12.0 °F -4.0 °F 5.5 °F 75% 30.30 in - ESE 15.0 mph 25.3 mph N/A   Unknown